Weather reports worldwide

Advertisment
Desenzano, Italy (16089): temperature & dewpoint: 07.07.2020 06:00:00 - 13.07.2020 06:00:00 (CEST)Desenzano, Italy (16089): wind speed: 07.07.2020 06:00:00 - 13.07.2020 06:00:00 (CEST)Desenzano, Italy (16089): wind direction: 07.07.2020 06:00:00 - 13.07.2020 06:00:00 (CEST)Desenzano, Italy (16089): reduced air pressure: 07.07.2020 06:00:00 - 13.07.2020 06:00:00 (CEST)Desenzano, Italy (16089): precipitation: 07.07.2020 06:00:00 - 13.07.2020 06:00:00 (CEST)
Date & Time tt [°C] td [°C] ff [km/h] ff [kn] dd ppp [hPa] rr [mm]
13.07.2020 06:00:00 - - - - - - -
13.07.2020 05:00:00 24,4 13,8 0 0 N 1021,1 -
13.07.2020 04:00:00 24,9 14,9 0 0 N 1021,4 -
13.07.2020 03:00:00 24,9 17,3 0 0 N 1021,6 -
13.07.2020 02:00:00 24,4 18,5 0 0 N 1021,5 0,0
13.07.2020 01:00:00 24,3 17,2 0 0 N 1021,7 -
13.07.2020 00:00:00 24,4 16,6 0 0 N 1021,6 -
12.07.2020 23:00:00 25,1 16,2 0 0 N 1021,3 -
12.07.2020 22:00:00 26,0 16,8 0 0 N 1020,9 -
12.07.2020 21:00:00 26,8 16,7 0 0 N 1020,3 -
12.07.2020 20:00:00 27,3 16,5 0 0 N 1019,9 0,0
12.07.2020 19:00:00 27,6 16,8 0 0 N 1019,6 -
12.07.2020 18:00:00 27,9 17,7 0 0 N 1019,6 -
12.07.2020 17:00:00 28,2 17,1 0 0 N 1019,9 -
12.07.2020 16:00:00 28,0 17,2 0 0 N 1020,3 -
12.07.2020 15:00:00 27,7 17,8 0 0 N 1020,6 -
12.07.2020 14:00:00 27,8 17,6 0 0 N 1021,0 0,0
12.07.2020 13:00:00 26,8 19,1 0 0 N 1021,2 -
12.07.2020 12:00:00 26,4 20,0 0 0 N 1021,2 -
12.07.2020 11:00:00 25,0 19,1 0 0 N 1021,1 -
12.07.2020 10:00:00 24,5 18,8 0 0 N 1021,3 -
12.07.2020 09:00:00 24,2 18,3 0 0 N 1021,0 -
12.07.2020 08:00:00 24,3 19,7 0 0 N 1020,4 0,0
12.07.2020 07:00:00 23,9 20,2 0 0 N 1019,8 -
12.07.2020 06:00:00 23,6 21,1 0 0 N 1019,2 -
12.07.2020 05:00:00 23,8 21,8 0 0 N 1018,6 -
12.07.2020 04:00:00 22,7 21,8 0 0 N 1018,6 -
12.07.2020 03:00:00 22,4 22,0 0 0 N 1018,5 -
12.07.2020 02:00:00 22,9 22,8 0 0 N 1018,4 0,0
12.07.2020 01:00:00 23,7 23,6 0 0 N 1018,4 -
12.07.2020 00:00:00 24,0 23,6 0 0 N 1018,2 -
11.07.2020 23:00:00 24,6 22,4 0 0 N 1017,6 -
11.07.2020 22:00:00 25,2 21,4 0 0 N 1016,4 -
11.07.2020 21:00:00 25,8 20,3 0 0 N 1014,9 -
11.07.2020 20:00:00 - - - - - - 0,0
11.07.2020 19:00:00 24,9 22,1 0 0 N 1013,4 -
11.07.2020 18:00:00 24,0 22,0 21 11 N 1013,6 -
11.07.2020 17:00:00 23,0 22,9 0 0 N 1013,9 -
11.07.2020 16:00:00 26,2 23,6 0 0 N 1012,0 -
11.07.2020 15:00:00 26,1 25,0 0 0 N 1012,5 -
11.07.2020 14:00:00 25,9 24,6 0 0 N 1013,2 0,0
11.07.2020 13:00:00 25,6 24,5 0 0 N 1013,6 -
11.07.2020 12:00:00 26,2 24,6 0 0 N 1013,5 -
11.07.2020 11:00:00 25,6 23,8 0 0 N 1013,2 -
11.07.2020 10:00:00 25,2 23,6 0 0 N 1013,3 -
11.07.2020 09:00:00 25,6 25,2 2 1 NNW 1013,1 -
11.07.2020 08:00:00 25,4 25,3 0 0 N 1012,8 0,0
11.07.2020 07:00:00 25,0 24,9 0 0 N 1012,5 -
11.07.2020 06:00:00 25,2 25,1 0 0 N 1012,2 -
11.07.2020 05:00:00 25,5 25,4 0 0 N 1012,1 -
11.07.2020 04:00:00 25,6 25,5 0 0 N 1011,9 -
11.07.2020 03:00:00 25,7 25,7 0 0 N 1012,6 -
11.07.2020 02:00:00 25,9 25,7 0 0 N 1013,1 0,0
11.07.2020 01:00:00 27,3 24,3 0 0 N 1014,2 -
11.07.2020 00:00:00 28,2 22,4 0 0 N 1013,0 -
10.07.2020 23:00:00 28,5 24,9 0 0 N 1012,7 -
10.07.2020 22:00:00 28,9 22,1 0 0 N 1012,1 -
10.07.2020 21:00:00 30,2 22,3 0 0 N 1011,6 -
10.07.2020 20:00:00 31,1 22,4 0 0 N 1011,6 0,0
10.07.2020 19:00:00 30,7 21,5 0 0 N 1011,8 -
10.07.2020 18:00:00 30,2 25,5 0 0 N 1012,1 -
10.07.2020 17:00:00 30,1 24,7 0 0 N 1012,2 -
10.07.2020 16:00:00 31,4 23,7 0 0 N 1012,9 -
10.07.2020 15:00:00 30,2 23,6 0 0 N 1013,6 -
10.07.2020 14:00:00 29,8 25,3 0 0 N 1014,0 0,0
10.07.2020 13:00:00 28,7 22,6 0 0 N 1014,4 -
10.07.2020 12:00:00 27,7 22,4 0 0 N 1014,9 -
10.07.2020 11:00:00 - - - - - - -
10.07.2020 10:00:00 26,9 22,9 0 0 N 1015,3 -
10.07.2020 09:00:00 26,8 23,0 0 0 N 1015,3 -
10.07.2020 08:00:00 26,2 22,4 0 0 N 1015,1 0,0
10.07.2020 07:00:00 25,8 22,8 0 0 N 1015,1 -
10.07.2020 06:00:00 25,7 23,3 0 0 N 1015,1 -
10.07.2020 05:00:00 25,7 23,5 0 0 N 1015,1 -
10.07.2020 04:00:00 25,6 24,9 0 0 N 1015,4 -
10.07.2020 03:00:00 25,2 24,1 0 0 N 1015,7 -
10.07.2020 02:00:00 25,8 24,2 0 0 N 1015,8 0,0
10.07.2020 01:00:00 25,7 24,6 0 0 N 1015,7 -
10.07.2020 00:00:00 26,1 24,3 0 0 N 1015,7 -
09.07.2020 23:00:00 26,5 22,7 0 0 N 1015,3 -
09.07.2020 22:00:00 27,3 23,3 0 0 N 1015,0 -
09.07.2020 21:00:00 28,0 21,5 0 0 N 1014,7 -
09.07.2020 20:00:00 28,2 23,9 0 0 N 1014,7 0,0
09.07.2020 19:00:00 28,1 23,0 0 0 N 1014,9 -
09.07.2020 18:00:00 - - - - - - -
09.07.2020 17:00:00 - - - - - - -
09.07.2020 16:00:00 28,4 21,6 0 0 N 1016,4 -
09.07.2020 15:00:00 28,2 22,6 0 0 N 1016,7 -
09.07.2020 14:00:00 27,5 21,2 0 0 N 1017,1 0,0
09.07.2020 13:00:00 27,5 22,2 0 0 N 1017,4 -
09.07.2020 12:00:00 26,8 19,9 0 0 N 1017,5 -
09.07.2020 11:00:00 26,4 19,5 0 0 N 1017,8 -
09.07.2020 10:00:00 25,8 20,1 0 0 N 1017,7 -
09.07.2020 09:00:00 25,2 21,2 0 0 N 1017,7 -
09.07.2020 08:00:00 25,2 21,2 0 0 N 1017,4 0,0
09.07.2020 07:00:00 24,6 21,3 0 0 N 1017,1 -
09.07.2020 06:00:00 24,4 21,5 0 0 N 1017,0 -
09.07.2020 05:00:00 24,1 21,7 0 0 N 1016,9 -
09.07.2020 04:00:00 23,4 18,9 0 0 N 1017,0 -
09.07.2020 03:00:00 24,0 18,8 0 0 N 1017,3 -
09.07.2020 02:00:00 24,7 19,0 0 0 N 1017,1 0,0
09.07.2020 01:00:00 24,8 22,2 0 0 N 1016,9 -
09.07.2020 00:00:00 25,0 21,0 0 0 N 1016,6 -
08.07.2020 23:00:00 25,5 19,3 0 0 N 1016,3 -
08.07.2020 22:00:00 26,4 18,5 0 0 N 1015,9 -
08.07.2020 21:00:00 27,3 17,7 0 0 N 1015,4 -
08.07.2020 20:00:00 27,5 18,2 0 0 N 1015,2 0,0
08.07.2020 19:00:00 27,3 20,3 0 0 N 1015,4 -
08.07.2020 18:00:00 27,3 20,1 0 0 N 1015,8 -
08.07.2020 17:00:00 27,1 18,9 0 0 N 1016,3 -
08.07.2020 16:00:00 27,0 18,5 0 0 N 1016,6 -
08.07.2020 15:00:00 28,1 17,6 0 0 N 1017,1 -
08.07.2020 14:00:00 27,7 19,4 0 0 N 1017,5 0,0
08.07.2020 13:00:00 26,7 18,0 0 0 N 1017,7 -
08.07.2020 12:00:00 26,0 17,8 0 0 N 1017,9 -
08.07.2020 11:00:00 25,4 17,5 0 0 N 1018,0 -
08.07.2020 10:00:00 25,1 17,0 0 0 N 1018,2 -
08.07.2020 09:00:00 25,0 17,9 0 0 N 1018,0 -
08.07.2020 08:00:00 23,8 18,8 0 0 N 1017,7 0,0
08.07.2020 07:00:00 21,4 16,7 0 0 N 1017,5 -
08.07.2020 06:00:00 20,3 15,2 0 0 N 1017,5 -
08.07.2020 05:00:00 20,8 16,7 0 0 N 1017,5 -
08.07.2020 04:00:00 21,2 16,3 0 0 N 1017,7 -
08.07.2020 03:00:00 21,8 16,5 0 0 N 1017,7 -
08.07.2020 02:00:00 22,4 17,0 0 0 N 1017,9 0,0
08.07.2020 01:00:00 22,9 15,9 0 0 N 1017,8 -
08.07.2020 00:00:00 23,7 15,7 0 0 N 1017,5 -
07.07.2020 23:00:00 24,6 15,4 0 0 N 1016,9 -
07.07.2020 22:00:00 25,4 15,6 0 0 N 1016,3 -
07.07.2020 21:00:00 26,3 15,0 0 0 N 1015,6 -
07.07.2020 20:00:00 26,8 15,4 0 0 N 1015,5 0,0
07.07.2020 19:00:00 27,1 15,4 0 0 N 1015,5 -
07.07.2020 18:00:00 27,2 15,2 0 0 N 1015,6 -
07.07.2020 17:00:00 27,3 15,9 0 0 N 1015,9 -
07.07.2020 16:00:00 27,5 16,1 0 0 N 1016,1 -
07.07.2020 15:00:00 27,3 16,5 0 0 N 1016,4 -
07.07.2020 14:00:00 26,9 17,6 0 0 N 1016,7 0,0
07.07.2020 13:00:00 26,5 17,8 0 0 N 1017,0 -
07.07.2020 12:00:00 26,0 17,3 0 0 N 1017,0 -
07.07.2020 11:00:00 25,2 17,3 0 0 N 1016,8 -
07.07.2020 10:00:00 24,3 18,4 0 0 N 1016,5 -
07.07.2020 09:00:00 24,0 19,2 0 0 N 1015,8 -
07.07.2020 08:00:00 23,6 18,6 0 0 N 1014,7 0,0
07.07.2020 07:00:00 23,8 17,7 0 0 N 1013,6 -
07.07.2020 06:00:00 25,0 19,3 0 0 N 1012,1 -

tt = temperature
td = dewpoint
ff = wind speed
dd = wind direction
ppp = reduced air pressure
rr = precipitation

Next stations